Weather History for KLXV - June, 2013

Change the Weather History Date:

Tuesday, June 25, 2013

  Actual Average Record
Temperature  
Mean Temperature 56 °F -  
Max Temperature 69 °F 68 °F 79 °F (2012)
Min Temperature 43 °F 35 °F 27 °F (1993)
Degree Days  
Heating Degree Days 9 14  
Month to date heating degree days 337 416  
Since 1 June heating degree days 337 416  
Since 1 July heating degree days 11094 11170  
Cooling Degree Days 0 0  
Month to date cooling degree days 0 0  
Year to date cooling degree days 0 0  
Since 1 June cooling degree days 0 0  
Growing Degree Days 6 (Base 50)    
Moisture  
Dew Point 22 °F    
Average Humidity 32    
Maximum Humidity 45    
Minimum Humidity 19    
Precipitation  
Precipitation 0.00 in 0.03 in 0.26 in (1992)
Month to date precipitation 0.07 0.76  
Year to date precipitation 7.37 4.89  
Sea Level Pressure  
Sea Level Pressure 29.80 in    
Wind  
Wind Speed 8 mph (NNW)    
Max Wind Speed 20 mph    
Max Gust Speed 30 mph    
Visibility 10 miles    
Events      
T = Trace of Precipitation, MM = Missing Value Source: NWS Daily Summary

Daily Weather History Graph

Daily Weather History Graph

Search for Another Location

Airport or City:

Trip Planner

Search our weather history database for the weather conditions in past years. The results will help you decide how hot, cold, wet, or windy it might be!

Date:

Astronomy

Jun. 25, 2013 Rise Set
Actual Time 5:40 AM MDT 8:35 PM MDT
Civil Twilight 5:07 AM MDT 9:07 PM MDT
Nautical Twilight 4:27 AM MDT 9:48 PM MDT
Astronomical Twilight 3:40 AM MDT 10:35 PM MDT
Moon 10:24 PM MDT (6/25) 8:22 AM MDT (6/25)
Length of Visible Light 15h 59m
Length of Day
14h 55m
Waning Gibbous, 92% of the Moon is Illuminated
Jun 25
Waning Gibbous
Jun 29
Last Quarter
Jul 8
New
Jul 15
First Quarter
Jul 22
Full

Hourly Weather History & Observations

Time (MDT) Temp. Windchill Dew Point Humidity Pressure Visibility Wind Dir Wind Speed Gust Speed Precip Events Conditions
12:53 AM 54.0 °F - 16.0 °F 22% 29.69 in 10.0 mi WSW 8.1 mph - N/A   Mostly Cloudy
1:53 AM 50.0 °F - 17.1 °F 27% 29.68 in 10.0 mi Calm Calm - N/A   Mostly Cloudy
2:53 AM 48.9 °F - 17.1 °F 28% 29.69 in 10.0 mi Calm Calm - N/A   Clear
3:53 AM 48.0 °F - 16.0 °F 28% 29.70 in 10.0 mi Calm Calm - N/A   Partly Cloudy
4:53 AM 46.0 °F - 17.1 °F 31% 29.72 in 10.0 mi Calm Calm - N/A   Clear
5:53 AM 44.1 °F 40.8 °F 18.0 °F 35% 29.77 in 10.0 mi NNE 5.8 mph - N/A   Clear
6:53 AM 48.0 °F - 19.0 °F 32% 29.77 in 10.0 mi North 8.1 mph - N/A   Clear
7:53 AM 55.0 °F - 17.1 °F 23% 29.75 in 10.0 mi NNW 9.2 mph - N/A   Clear
8:53 AM 55.9 °F - 19.0 °F 24% 29.78 in 10.0 mi West 9.2 mph - N/A   Clear
9:53 AM 59.0 °F - 21.0 °F 23% 29.77 in 10.0 mi NNW 8.1 mph 18.4 mph N/A   Clear
10:53 AM 61.0 °F - 21.9 °F 22% 29.78 in 10.0 mi NNW 13.8 mph 20.7 mph N/A   Clear
11:53 AM 63.0 °F - 24.1 °F 23% 29.82 in 10.0 mi NNW 10.4 mph 18.4 mph N/A   Clear
12:53 PM 64.9 °F - 24.1 °F 21% 29.77 in 10.0 mi West 15.0 mph 20.7 mph N/A   Clear
1:53 PM 66.0 °F - 25.0 °F 21% 29.80 in 10.0 mi NNW 15.0 mph 23.0 mph N/A   Partly Cloudy
2:53 PM 68.0 °F - 26.1 °F 21% 29.79 in 10.0 mi WNW 15.0 mph 24.2 mph N/A   Clear
3:53 PM 69.1 °F - 26.1 °F 20% 29.79 in 10.0 mi NNW 17.3 mph 24.2 mph N/A   Clear
4:53 PM 68.0 °F - 25.0 °F 20% 29.82 in 10.0 mi NNW 12.7 mph 24.2 mph N/A   Clear
5:53 PM 68.0 °F - 25.0 °F 20% 29.84 in 10.0 mi NNW 15.0 mph 24.2 mph N/A   Clear
6:53 PM 66.9 °F - 26.1 °F 21% 29.83 in 10.0 mi NW 9.2 mph - N/A   Clear
7:53 PM 64.0 °F - 26.1 °F 24% 29.83 in 10.0 mi WNW 9.2 mph - N/A   Clear
8:53 PM 55.9 °F - 28.0 °F 34% 29.90 in 10.0 mi NE 6.9 mph - N/A   Clear
9:53 PM 52.0 °F - 27.0 °F 38% 29.92 in 10.0 mi NE 5.8 mph - N/A   Clear
10:53 PM 50.0 °F - 27.0 °F 41% 29.94 in 10.0 mi NE 4.6 mph - N/A   Clear
11:53 PM 46.0 °F 44.8 °F 27.0 °F 47% 29.95 in 10.0 mi NE 3.5 mph - N/A   Clear